Regional Weather Roundup
Issued by NWS

Home | Current Version | Previous Version | Graphics & Text | Print | Product List | Glossary On
Versions: 1 2 3 4 5 6 7 8 9 10 11 12 13 14 15 16 17 18 19 20 21 22 23 24 25 26 27
000
ASUS45 KCYS 212310
RWRWY

WYOMING REGIONAL WEATHER ROUNDUP
NATIONAL WEATHER SERVICE CHEYENNE WY
400 PM MST TUE NOV 21 2017

NOTE:  "FAIR" INDICATES FEW OR NO CLOUDS BELOW 12,000 FEET
WITH NO SIGNIFICANT WEATHER AND/OR OBSTRUCTIONS TO VISIBILITY.

WYZ001-220000-
YELLOWSTONE NATIONAL PARK

CITY           SKY/WX    TMP DP  RH WIND       PRES   REMARKS
LK YELLOWSTONE   N/A     33  30  88 CALM      30.35F
W YELLOWSTONE  NOT AVBL

$$
WYZ002>013-054>058-071-098>099-220000-
NORTHERN WYOMING

CITY           SKY/WX    TMP DP  RH WIND       PRES   REMARKS
JACKSON        FAIR      43  34  70 SW14      30.32S
CODY           FAIR      46  32  58 SE6       30.20R
GREYBULL       FAIR      42  29  59 S3        30.22S
WORLAND        FAIR      42  31  64 E7        30.20F
SHERIDAN       FAIR      41  34  76 CALM      30.16F
BUFFALO        FAIR      41  25  53 S8        30.19S
GILLETTE       FAIR      42  26  53 SW5       30.20S
HULETT         FAIR      36  27  69 SW10      30.22F WCI  28
NEWCASTLE      FAIR      36  21  55 CALM      30.25F

$$
WYZ014>020-022>026-101>103-220000-
CENTRAL WYOMING

CITY           SKY/WX    TMP DP  RH WIND       PRES   REMARKS
BIG PINEY      FAIR      45  33  63 N10       30.34R
PINEDALE       FAIR      41  32  70 NW8       30.34F
DUBOIS         FAIR      39  30  70 NW13      30.26S WCI  32
LANDER         FAIR      50  31  48 E5        30.20S
RIVERTON       FAIR      46  32  58 CALM      30.23R
CASPER         FAIR      45  32  60 S7        30.21F
DOUGLAS        FAIR      44  28  53 SE6       30.24S

$$
WYZ021-027>030-104>119-220000-
SOUTHERN WYOMING

CITY           SKY/WX    TMP DP  RH WIND       PRES   REMARKS
EVANSTON       FAIR      45  37  73 SW6       30.38S
KEMMERER       CLOUDY    41  34  75 W14       30.38S
FORT BRIDGER   CLOUDY    45  38  78 W8        30.41R
ROCK SPRINGS   FAIR      45  35  68 W18       30.34R
DIXON          FAIR      45  34  64 W7        30.36R
RAWLINS        FAIR      46  32  58 W21G29    30.29R
SARATOGA       FAIR      43  34  70 W13       30.32R
LARAMIE        FAIR      39  29  67 W6        30.27S WCI  35
CHEYENNE       MOCLDY    41  33  73 SW15      30.27S
TORRINGTON     FAIR      46  27  47 CALM      30.25S
PINE BLUFFS    FAIR      43  28  56 CALM      30.29R

$$




USA.gov is the U.S. government's official web portal to all federal, state and local government web resources and services.